Track WESTFORD NEEDLES now! 10-day predictions WESTFORD NEEDLES is classified as:
1 19109U 63014EJ 21025.05272879 -.00001613 00000-0 -48122+0 0 9993 2 19109 87.0967 267.5832 0902935 204.8446 150.6238 8.69532459287304